Home   Weather   Orléans   Past weeks
Flag for France

Past Weather in Orléans, Centre-Val de Loire, France — Yesterday and Last 2 Weeks

Now
59 °F

Partly cloudy.


Feels Like: 57 °F
Forecast: 61 / 55 °F
Wind: 12 mph from Southwest

Location: Orleans Airport

Current Time: Oct 17, 2019 at 10:46:29 pm

Latest Report: Oct 17, 2019 at 10:00 pm


Visibility: N/A

Pressure: 29.83 "Hg

Humidity: 94%

Dew Point: 57 °F

Location of OrléansLocation

Past Weather in Orléans — Graph

°F

Orléans Temperature Yesterday

Maximum temperature yesterday: 63 °F (at 2:00 pm)
Minimum temperature yesterday: 52 °F (at 12:00 am)
Average temperature yesterday: 57 °F

High & Low Weather Summary for the Past Weeks

 TemperatureHumidityPressure
High79 °F (Oct 13, 1:30 pm)100% (Oct 3, 3:30 am)30.18 "Hg (Oct 3, 3:30 am)
Low36 °F (Oct 3, 4:30 am)48% (Oct 13, 1:30 pm)29.62 "Hg (Oct 14, 4:30 pm)
Average58 °F84%29.92 "Hg
* Reported Oct 2 9:00 pm — Oct 17 9:30 pm, Orléans. Weather by CustomWeather, © 2019

Note: Actual official high and low records may vary slightly from our data, if they occured in-between our weather recording intervals... More about our weather records

Advertising

Orléans Weather History for the Previous 24 Hours

Scroll right to see more
 ConditionsComfort  
Time TempWeatherWind HumidityBarometerVisibility
9:30 pm
Thu, Oct 17
59 °FPassing clouds.14 mph94%29.83 "HgN/A
9:00 pm59 °FLight rain. Partly cloudy.17 mph94%29.83 "Hg6 mi
8:30 pm59 °FLow clouds.14 mph94%29.83 "HgN/A
8:00 pm59 °FClear.14 mph94%29.83 "Hg10 mi
7:30 pm57 °FClear.12 mph94%29.83 "Hg10 mi
7:00 pm59 °FSunny.9 mph88%29.83 "Hg10 mi
6:30 pm61 °FSunny.12 mph83%29.83 "Hg10 mi
6:00 pm61 °FSunny.13 mph83%29.83 "Hg10 mi
4:30 pm63 °FPartly sunny.15 mph83%29.83 "HgN/A
4:00 pm61 °FPartly sunny.15 mph88%29.83 "HgN/A
3:30 pm61 °FMostly cloudy.16 mph88%29.83 "HgN/A
3:00 pm61 °FMostly cloudy.16 mph88%29.83 "HgN/A
2:30 pm59 °FMostly cloudy.14 mph94%29.83 "HgN/A
2:00 pm59 °FLow clouds.14 mph94%29.83 "HgN/A
1:30 pm57 °FDrizzle. Fog.10 mph100%29.83 "Hg3 mi
1:00 pm57 °FLow clouds.8 mph100%29.83 "Hg4 mi
12:30 pm55 °FLow clouds.5 mph100%29.86 "Hg4 mi
12:00 pm54 °FDrizzle. Fog.1 mph100%29.86 "Hg1 mi
11:30 am54 °FDrizzle. Fog.2 mph100%29.86 "Hg1 mi
11:00 am54 °FDrizzle. Low clouds.2 mph94%29.86 "Hg4 mi
10:30 am54 °FLight rain. Mostly cloudy.2 mph94%29.86 "Hg5 mi
10:00 am54 °FLight rain. Fog.2 mph94%29.86 "Hg2 mi
9:30 am54 °FDrizzle. Overcast.5 mph94%29.86 "HgN/A
9:00 am54 °FMostly cloudy.6 mph94%29.86 "HgN/A
8:30 am54 °FOvercast.5 mph94%29.86 "HgN/A
8:00 am54 °FOvercast.2 mph94%29.83 "HgN/A
7:30 am54 °FDrizzle. Overcast.6 mph94%29.86 "Hg4 mi
7:00 am54 °FDrizzle. Low clouds.8 mph100%29.86 "HgN/A
6:30 am55 °FDrizzle. Fog.8 mph94%29.86 "Hg3 mi
6:00 am55 °FLight rain. Fog.9 mph94%29.86 "Hg3 mi
5:30 am57 °FLight rain. Partly cloudy.7 mph94%29.86 "Hg6 mi
5:00 am57 °FLow clouds.10 mph94%29.86 "HgN/A
4:30 am57 °FLight rain. Partly cloudy.9 mph94%29.86 "HgN/A
4:00 am57 °FMostly cloudy.13 mph94%29.86 "HgN/A
3:30 am57 °FMostly cloudy.12 mph94%29.86 "HgN/A
3:00 am57 °FMostly cloudy.13 mph94%29.86 "HgN/A
2:30 am57 °FMostly cloudy.13 mph94%29.86 "HgN/A
2:00 am57 °FMostly cloudy.15 mph94%29.83 "HgN/A
1:30 am57 °FLow clouds.15 mph94%29.83 "HgN/A
1:00 am57 °FLow clouds.17 mph94%29.83 "HgN/A
12:30 am57 °FOvercast.18 mph94%29.83 "HgN/A
12:00 am57 °FPassing clouds.21 mph88%29.83 "HgN/A
11:30 pm
Wed, Oct 16
57 °FOvercast.20 mph88%29.83 "HgN/A
11:00 pm57 °FPassing clouds.21 mph88%29.80 "HgN/A
10:30 pm57 °FMostly cloudy.20 mph94%29.80 "HgN/A
10:00 pm57 °FMostly cloudy.18 mph94%29.80 "HgN/A
Weather by CustomWeather, © 2019

See weather overview